Location: Asheville, NC
(35.6000°N, 82.5500°W)
Time: 07:20:59
(UTC-04:00)

Iridium 28 - Pass Details

Date: 06 January 2018
Orbit: 771 x 775 km, 86.4° (Epoch: 19 June)

Event Time Altitude Azimuth Distance (km) Brightness Sun altitude
Rises 18:04:16 0° 4° (N) 3,256 8.5 -6.7°
Reaches altitude 10° 18:06:42 10° 10° (N) 2,325 7.7 -7.2°
Maximum altitude 18:11:44 49° 85° (E) 988 5.7 -8.1°
Drops below altitude 10° 18:16:44 10° 160° (SSE) 2,308 8.0 -9.1°
Sets 18:19:08 0° 166° (SSE) 3,231 8.8 -9.5°
